• Join FlightAware (Why Join?)
  • Login
  • US Flag GB Flag 
02:17 EST


 

Airport Tracker/Info


-or-


 

Live Flight TrackerFlight Track Log ✈ N527MC ✈ 24-Apr-2013 ✈ I19 - KHAO

Flight Track Log - Related Links

Times and Time Zones

All times are in EDT time to prevent confusion due to time zone crossing. See the N527MC flight status page for this flight to view local times or setup timezone preferences in your user account.

Time Position Orientation Groundspeed Altitude Reporting Facility
EDT Latitude Longitude Course Direction KTS MPH feet Rate Location/Type
19:09 39.7958 -83.7256 235° Southwest 124 143 3,100  Level Indianapolis Center
19:10 39.7803 -83.7544 235° Southwest 123 142 3,100 -120 Level Indianapolis Center
19:10 39.7739 -83.7689 240° Southwest 124 143 3,000  Descending Indianapolis Center
19:11 39.7611 -83.7922 235° Southwest 124 143 3,100  Climbing Indianapolis Center
19:12 39.7428 -83.8303 238° Southwest 124 143 3,100  Level Indianapolis Center
19:13 39.7253 -83.8694 240° Southwest 124 143 3,100  Level Indianapolis Center
19:14 39.7028 -83.9053 231° Southwest 125 144 3,100  Level Indianapolis Center
19:14 39.6933 -83.9186 227° Southwest 125 144 3,100 -120 Level Indianapolis Center
19:15 39.6769 -83.9392 224° Southwest 128 147 3,000  Descending Indianapolis Center
19:16 39.6533 -83.9725 227° Southwest 127 146 3,100  Climbing Indianapolis Center
19:17 39.6256 -84.0139 229° Southwest 127 146 3,000 -120 Descending Indianapolis Center
19:17 39.6181 -84.0256 230° Southwest 128 147 3,000  Level Indianapolis Center
19:18 39.6022 -84.0475 227° Southwest 127 146 3,000  Level Indianapolis Center
19:19 39.5775 -84.0811 226° Southwest 126 145 3,100  Climbing Indianapolis Center
19:20 39.5533 -84.1144 227° Southwest 127 146 3,100 -120 Level Indianapolis Center
19:20 39.5453 -84.1244 224° Southwest 128 147 3,000  Descending Indianapolis Center
19:21 39.5286 -84.1489 229° Southwest 128 147 3,100 60 Climbing Indianapolis Center
19:22 39.5047 -84.1828 228° Southwest 127 146 3,200 -60 Climbing Indianapolis Center
19:23 39.4789 -84.2164 225° Southwest 129 148 3,000 -60 Descending Indianapolis Center
19:24 39.4386 -84.2183 182° South 135 155 3,100  Climbing Indianapolis Center
19:25 39.3992 -84.2244 187° South 140 161 3,100  Level Indianapolis Center
19:26 39.3550 -84.2319 187° South 142 163 3,100  Level Indianapolis Center
19:27 39.3144 -84.2433 192° South 142 163 3,100  Level Indianapolis Center
19:28 39.2994 -84.2814 243° Southwest 137 158 3,100  Level Indianapolis Center
19:29 39.2892 -84.3236 253° West 135 155 3,100  Level Indianapolis Center